Theta_e
326 332 332 334 345 349 345 347 343 346 345 343 337 343 345 350 354 364 337 338 346 347 350 346 334 341 344 343 341 339 338 337 340 342 341 344 345 344 340 342 346 347 346 346 346 343 340 340 340
324 327 331 337 347 360 347 344 349 348 346 341 339 342 346 353 350 346 340 340 347 348 349 346 334 337 344 343 342 341 338 338 342 344 344 344 342 339 340 342 344 346 346 343 341 340 339 337 336
328 329 333 339 342 350 349 346 346 348 346 342 346 342 346 352 348 341 339 341 347 347 348 347 336 335 343 345 342 342 342 340 344 344 345 342 341 339 342 345 345 345 344 342 340 337 336 335 334
328 331 333 338 340 344 347 348 345 347 347 345 344 350 349 346 344 342 338 343 345 346 348 340 334 334 342 344 342 340 339 342 344 344 342 341 339 341 344 344 343 342 339 338 336 334 334 334 334
326 331 332 335 337 336 336 344 347 345 342 344 341 347 352 346 344 339 340 344 343 346 347 344 333 331 335 340 334 335 340 341 341 342 339 340 339 340 342 340 340 339 336 334 334 334 333 333 333
329 332 332 334 335 335 334 340 345 343 341 344 343 343 351 343 339 339 341 342 342 347 345 345 335 327 329 331 328 331 336 338 339 339 341 340 337 337 338 338 338 336 335 334 333 332 332 332 332
330 332 332 333 336 336 336 340 344 343 342 343 341 344 349 344 340 339 340 342 342 346 346 344 342 341 333 326 323 330 332 337 335 337 336 332 333 335 335 336 335 334 333 332 331 331 331 331 331
330 331 333 332 334 335 339 339 343 344 343 340 339 342 351 347 342 339 339 340 341 344 346 344 342 341 341 340 330 332 334 336 335 335 333 330 330 331 332 331 330 331 330 330 331 331 331 331 331
330 331 333 332 332 333 334 338 343 342 341 341 342 341 346 347 342 339 338 340 340 341 344 343 341 341 339 339 338 332 332 333 333 332 329 332 341 339 343 338 341 334 329 330 330 333 337 337 332
330 331 331 333 332 332 330 334 344 344 340 340 342 344 349 347 343 339 338 340 340 340 342 342 341 340 340 341 343 341 341 341 341 341 342 342 340 341 340 342 340 329 328 330 337 341 342 337 346
330 330 332 334 331 331 331 336 344 341 340 340 339 348 350 347 343 340 337 337 339 339 341 342 342 342 340 340 343 341 340 340 341 343 345 340 340 340 337 336 340 338 337 344 343 349 347 349 345
329 330 331 333 332 330 331 331 341 341 339 340 338 347 350 347 343 339 337 336 337 338 339 341 342 344 341 339 342 341 341 341 342 343 345 344 343 341 340 338 338 341 342 344 345 343 343 344 345
327 328 330 331 332 330 331 331 333 336 337 339 338 346 348 344 342 337 336 336 337 338 339 340 343 346 344 342 341 341 340 341 341 343 344 342 342 341 340 339 338 338 341 344 343 343 344 345 344
327 327 327 331 331 331 331 332 329 330 330 334 337 341 346 341 340 338 338 338 337 338 340 340 343 348 347 346 343 341 342 340 341 342 341 343 342 342 340 343 343 341 342 344 344 346 348 346 345
323 325 326 329 330 331 331 332 331 330 331 333 337 339 341 341 338 338 338 340 340 341 341 341 342 347 348 347 346 343 341 340 342 343 344 343 345 345 345 346 347 347 348 348 348 347 347 348 346
321 323 323 325 327 329 331 331 332 331 330 332 334 336 337 339 338 338 339 340 342 343 344 344 344 345 349 347 346 342 341 340 343 345 344 346 347 348 350 349 348 348 350 349 348 348 347 347 346
322 321 322 323 326 328 330 329 330 332 330 330 331 333 336 338 340 337 341 342 342 343 345 347 346 345 348 347 345 343 341 342 344 346 346 348 348 347 349 349 349 351 351 350 349 348 348 347 346
323 323 323 323 325 326 326 328 329 331 331 330 329 330 331 336 338 339 340 341 344 344 346 347 348 347 349 348 345 343 342 343 343 346 347 349 351 350 351 352 351 353 351 348 348 350 348 347 345
322 323 323 324 324 324 325 326 327 329 330 330 329 330 330 330 334 336 340 342 344 347 348 348 350 349 350 350 347 344 343 344 342 345 349 353 354 354 354 353 352 351 349 350 350 348 345 344 342
321 321 321 322 323 323 324 324 325 326 328 329 329 330 330 331 331 332 339 344 347 351 352 352 352 353 352 351 349 346 344 345 347 350 353 354 355 355 354 353 351 350 349 348 346 345 343 340 337
322 322 323 323 323 323 323 324 324 324 325 326 328 329 330 330 330 331 333 344 348 351 355 354 355 354 353 350 350 348 345 345 349 352 355 354 354 352 352 351 350 349 347 344 341 337 335 332 329
324 324 324 324 324 322 325 326 326 326 326 325 326 327 328 329 329 330 331 336 347 350 351 354 356 357 356 353 349 348 346 348 352 352 351 351 350 349 348 348 346 343 338 337 331 330 330 324 324
326 325 326 326 326 327 326 326 326 326 326 326 327 327 328 328 329 330 330 329 337 348 351 352 356 357 356 355 351 350 349 349 350 350 352 348 346 345 342 342 339 336 332 332 329 327 326 325 323
325 325 326 327 327 328 327 327 326 326 327 327 327 332 334 337 337 332 332 333 332 341 351 354 355 358 357 357 354 353 351 350 350 351 349 347 344 341 337 335 333 329 329 325 324 325 325 325 324
328 329 331 331 328 327 327 328 328 327 327 335 336 335 334 335 339 343 342 339 337 341 351 353 357 357 357 357 355 356 354 352 355 351 347 344 341 335 330 328 327 325 325 323 323 324 323 324 324
327 328 331 334 333 331 330 330 329 328 334 333 331 329 328 330 331 334 344 340 338 343 349 351 353 356 357 357 356 355 354 353 353 350 346 342 335 331 327 326 324 324 322 321 321 321 321 321 320
324 328 324 329 331 331 328 328 328 334 332 327 323 322 322 322 328 330 337 347 349 353 350 351 352 354 356 356 356 355 354 355 351 348 342 336 332 330 326 325 324 321 319 319 320 320 320 319 318
318 318 322 324 328 330 329 328 335 331 324 321 320 319 323 324 326 328 330 336 341 345 351 354 354 354 353 355 355 355 353 351 348 343 336 333 330 326 324 323 321 319 319 319 320 319 319 318 317
317 319 319 320 323 324 323 323 332 326 320 318 317 317 320 322 324 325 326 330 337 337 340 346 350 350 350 351 351 349 348 347 344 338 336 331 326 324 322 321 319 319 319 318 320 318 317 317 317
314 314 315 317 317 318 319 323 325 325 322 317 316 316 317 318 319 319 319 321 326 329 337 338 344 347 347 348 349 349 347 344 338 335 331 326 324 323 321 320 319 318 319 320 319 317 316 316 316
Wind_Speed
11 8 11 11 8 5 4 15 16 5 9 9 10 7 14 15 14 5 18 14 23 22 19 17 16 16 15 15 14 14 13 12 12 13 14 16 14 14 14 14 14 12 12 12 11 11 11 11 10
11 13 14 8 5 6 8 15 16 15 9 5 9 2 8 14 12 14 15 18 22 21 19 17 16 16 15 15 15 15 13 13 14 15 15 15 14 14 13 13 12 11 10 10 9 9 8 8 7
12 12 11 11 7 7 10 15 18 13 8 7 8 3 6 7 5 15 21 22 22 20 19 18 17 16 16 15 15 15 14 14 14 14 14 14 13 13 13 11 10 9 8 7 6 6 5 5 5
8 11 8 11 2 11 8 25 18 14 9 3 6 12 9 8 11 10 22 23 21 21 19 19 17 17 16 15 15 15 15 15 15 14 13 13 13 12 11 10 9 7 6 5 4 3 3 3 4
15 9 12 13 12 5 5 8 5 15 7 7 4 14 8 5 12 21 23 22 21 21 19 19 18 17 17 16 16 17 16 15 15 14 13 12 12 11 10 9 8 6 5 4 2 1 2 3 4
10 10 12 13 13 8 2 2 3 10 9 7 3 10 11 14 20 21 22 21 20 21 20 18 17 17 17 17 16 17 16 15 14 13 12 11 11 10 9 8 7 5 4 3 2 2 3 4 5
15 13 16 19 4 1 4 1 7 6 5 10 0 9 11 15 18 21 21 20 20 20 21 19 17 16 17 17 16 16 16 15 14 13 12 11 10 9 9 7 6 5 4 4 4 4 5 5 6
12 13 20 7 11 2 8 4 6 2 15 6 4 6 11 17 19 19 20 20 20 21 19 20 19 17 16 15 16 15 15 14 13 12 11 11 10 9 8 6 5 6 6 6 6 6 7 7 7
13 13 15 15 10 2 6 10 3 1 6 5 4 7 16 22 20 20 20 20 20 20 20 20 20 19 18 16 15 15 14 14 13 11 11 10 7 8 9 9 10 8 8 8 8 8 8 9 11
14 13 21 3 6 9 4 10 16 7 7 8 10 9 19 22 21 20 20 20 21 20 21 21 20 19 19 16 15 13 12 11 10 10 11 10 8 8 8 8 10 11 9 9 8 6 8 13 14
17 18 22 6 2 5 11 9 9 13 15 11 16 14 17 21 20 20 20 21 22 21 20 20 19 18 18 16 14 15 13 13 12 12 11 10 9 9 9 9 9 9 11 9 13 12 12 14 10
20 18 23 6 5 9 11 7 5 11 13 6 8 20 18 18 18 20 20 20 20 21 20 19 19 18 17 15 15 14 14 14 12 12 12 10 9 8 8 9 8 7 8 9 8 11 10 11 12
21 16 18 13 8 12 9 11 11 10 13 5 6 18 17 17 18 19 19 18 18 19 20 20 20 19 17 14 15 13 13 13 12 11 12 12 10 9 8 8 9 9 9 8 9 11 11 11 13
18 13 22 14 15 15 14 14 8 15 12 5 8 17 17 18 18 19 20 19 19 19 21 21 21 20 19 18 14 14 13 12 12 12 12 13 11 9 9 9 8 8 9 10 11 11 12 13 14
11 15 16 19 16 16 13 16 15 16 6 11 11 13 17 17 21 21 23 22 23 21 21 22 22 21 21 19 17 15 14 14 13 13 12 12 12 9 9 9 8 8 8 10 12 13 13 14 13
14 16 17 21 24 22 18 15 20 17 12 13 15 15 16 19 20 24 23 24 25 23 23 23 23 23 22 20 19 17 15 15 14 13 12 13 12 11 9 10 9 10 9 11 13 12 14 15 13
13 14 19 17 20 21 20 19 20 17 19 14 14 14 14 16 18 24 26 26 26 26 25 25 24 24 24 22 19 19 17 16 15 14 13 12 12 12 12 11 11 9 10 13 12 12 11 13 13
11 16 13 11 13 10 15 18 19 21 14 13 16 16 15 18 19 24 27 29 29 28 27 27 26 23 25 22 20 19 19 18 17 15 14 12 12 11 12 11 10 7 10 9 6 7 10 10 11
12 13 12 12 5 1 13 16 20 23 24 16 16 19 18 18 18 25 29 28 28 29 28 30 29 28 27 25 24 22 22 19 18 16 14 13 12 12 11 9 5 5 6 4 4 6 9 11 7
12 13 15 13 12 8 13 18 18 20 19 20 18 19 20 19 19 19 28 30 28 30 32 30 31 30 31 27 25 23 22 20 18 16 14 13 11 10 8 7 6 6 3 3 2 4 8 11 5
13 13 13 14 11 12 15 18 19 19 20 21 23 22 21 22 20 20 21 29 31 29 29 30 30 31 33 29 25 20 20 18 19 17 14 13 12 11 10 8 7 6 5 3 1 2 3 8 6
13 10 8 10 12 13 13 11 13 15 20 22 22 23 18 19 21 19 20 24 33 32 30 29 30 30 31 31 27 28 25 23 22 20 18 15 14 13 11 10 9 6 5 5 4 2 3 5 5
12 11 9 13 13 15 17 11 14 15 15 16 12 15 19 22 20 20 20 25 28 30 30 29 29 29 30 32 30 29 27 25 22 22 21 18 17 15 14 12 10 8 7 6 6 3 4 2 3
11 12 16 17 16 16 19 17 16 16 17 7 10 9 13 17 18 14 11 15 25 29 27 28 27 29 31 31 35 31 32 27 26 24 21 21 18 17 15 13 12 10 9 8 7 5 5 3 3
12 11 11 14 14 14 17 16 13 7 11 22 21 22 23 24 25 25 25 17 12 14 16 24 24 26 29 31 32 31 31 30 27 27 24 23 19 17 20 18 15 11 9 9 7 6 6 3 4
13 9 11 17 14 17 21 13 7 5 20 20 20 20 22 24 23 24 26 26 30 11 14 22 23 24 27 29 29 30 28 29 26 27 25 24 22 21 22 18 16 13 11 9 9 7 6 5 5
8 9 12 12 16 16 17 22 23 19 22 23 23 24 24 23 22 24 24 36 38 44 10 15 17 20 23 27 27 28 27 25 25 25 26 21 22 22 23 18 15 13 12 10 10 7 4 6 4
6 12 9 9 18 19 16 16 6 16 17 19 22 23 23 23 22 22 20 23 31 26 25 9 5 9 15 20 23 22 26 24 23 24 25 25 22 24 24 22 19 14 12 10 8 8 6 4 5
11 5 7 8 8 13 16 10 12 14 14 18 21 22 21 22 24 23 25 31 28 26 23 17 16 15 17 19 16 22 23 24 26 23 22 23 24 24 23 20 20 16 13 11 8 6 7 4 3
10 11 9 7 9 14 13 16 7 2 15 23 23 23 21 23 22 22 26 30 22 32 23 24 20 16 18 22 19 20 24 25 24 25 25 26 25 23 22 20 18 16 13 11 11 9 6 3 2
Wind_Direction
307 290 270 256 244 293 210 99 118 115 110 46 99 8 50 39 11 71 134 141 130 135 141 139 140 139 142 145 147 152 151 149 138 133 129 124 121 120 118 116 112 109 105 98 93 90 84 77 69
290 286 254 269 230 221 324 137 97 68 91 50 81 279 93 72 50 123 129 137 134 138 138 142 143 143 145 147 150 150 149 144 139 133 131 129 129 122 117 114 113 112 109 102 97 90 84 76 66
294 273 276 241 262 110 274 111 105 109 117 137 129 332 22 66 97 143 130 142 135 140 140 149 144 146 150 152 154 153 150 144 139 137 136 134 128 124 120 117 115 114 110 106 97 85 75 62 43
290 258 243 256 357 151 148 295 106 118 103 116 349 101 101 44 133 125 146 144 144 143 140 148 147 148 151 155 154 151 148 146 143 141 140 136 132 130 128 127 123 121 121 119 107 90 56 29 11
257 261 266 249 270 110 351 17 18 102 90 83 342 91 74 95 119 137 145 147 149 141 143 146 149 150 153 158 156 153 151 149 146 146 145 143 140 139 140 137 134 136 133 132 125 88 340 335 331
278 256 271 258 228 111 19 43 280 108 75 62 139 105 89 131 135 143 151 156 150 140 146 149 153 154 155 158 157 157 155 153 150 151 152 152 152 151 148 151 152 162 171 182 231 277 297 306 311
261 271 253 273 24 334 125 341 231 142 106 86 250 95 117 148 143 150 157 157 152 148 150 153 156 160 161 161 161 161 158 158 157 159 161 161 165 163 165 171 179 187 212 231 251 271 284 294 307
272 277 270 274 274 154 85 228 237 236 89 112 289 82 158 137 153 158 161 163 157 158 155 160 162 162 164 166 167 166 164 164 164 167 169 173 177 178 185 188 208 216 228 248 262 272 282 290 293
255 270 255 229 236 329 109 234 155 30 108 135 91 65 120 145 160 167 167 167 165 169 161 166 168 169 169 167 173 170 173 172 174 175 181 183 192 206 217 219 227 249 245 252 261 273 285 289 280
236 243 252 343 57 339 359 267 157 198 202 159 126 116 130 157 169 175 175 175 173 177 169 170 173 171 172 167 173 175 181 180 185 189 198 196 212 208 214 206 252 254 255 261 259 275 295 274 270
232 250 256 126 236 318 305 230 185 197 191 201 169 153 155 166 178 183 184 182 180 178 176 173 176 173 176 173 174 181 185 189 194 198 201 209 216 222 228 237 241 241 244 264 248 254 262 257 301
237 243 262 305 111 245 280 346 233 237 234 128 147 150 163 176 183 189 188 183 181 176 179 178 178 179 187 180 182 186 190 192 196 202 205 213 220 223 239 242 253 242 239 263 280 276 304 300 282
237 245 250 259 252 253 278 257 251 220 240 107 188 148 171 184 185 188 183 177 180 178 180 186 182 186 190 192 189 194 198 196 199 198 207 212 220 227 233 244 254 268 281 287 284 287 296 294 284
238 232 255 241 242 238 244 254 184 237 224 188 204 167 181 189 185 186 184 178 185 187 180 187 186 188 191 195 196 198 199 199 205 207 212 215 221 227 235 241 253 261 269 277 283 298 311 303 300
273 267 265 256 251 249 249 246 255 246 169 184 193 188 184 195 187 193 189 186 186 188 184 189 190 190 193 196 199 200 202 206 206 211 211 214 217 225 233 243 252 258 265 278 281 277 281 279 313
241 243 247 230 223 233 242 256 228 222 196 223 195 193 197 188 199 198 195 192 188 188 189 191 192 190 193 196 198 202 205 206 208 210 210 211 213 220 224 239 250 260 272 279 281 293 303 305 308
215 244 231 246 217 219 220 233 256 229 211 221 240 202 209 204 203 207 200 197 196 194 190 192 194 193 192 196 198 203 204 207 210 211 210 206 213 219 227 243 255 253 269 276 289 293 303 298 310
238 209 228 261 225 214 263 255 241 257 227 217 238 250 232 206 208 207 210 203 198 197 194 194 194 198 188 193 198 202 205 207 210 211 212 206 214 222 230 248 255 264 268 283 307 316 308 308 306
330 305 303 304 252 314 278 273 249 239 255 217 235 241 243 247 219 205 204 214 200 198 198 195 196 194 190 194 196 200 205 206 210 212 213 212 219 226 226 240 234 247 273 283 305 295 290 299 318
265 260 260 260 262 282 270 264 257 265 260 260 253 244 250 242 239 243 198 196 206 197 200 200 198 195 194 199 201 205 204 205 206 205 207 211 207 194 195 212 204 201 201 239 309 304 312 301 357
247 261 275 281 296 222 267 267 261 259 255 254 249 253 255 255 252 234 239 192 194 205 202 206 204 200 198 201 201 205 206 204 202 196 193 198 191 179 182 186 174 183 211 170 190 329 352 327 319
272 264 290 275 260 259 242 286 268 250 228 232 244 246 254 250 255 263 245 227 188 200 206 208 210 208 204 202 201 201 199 196 199 196 195 185 179 177 174 175 176 170 171 141 115 47 9 359 334
284 325 284 283 276 279 266 262 259 258 257 259 237 245 253 251 241 234 239 251 207 194 203 211 207 209 210 204 208 197 202 200 199 194 169 177 178 173 166 166 162 163 158 136 113 93 44 25 341
275 287 274 267 259 254 252 253 267 264 274 244 219 318 332 350 349 257 253 288 260 203 200 208 206 209 207 205 207 203 199 200 192 184 176 182 181 169 164 162 157 154 147 142 126 114 85 51 44
240 266 275 261 238 244 239 235 252 345 352 51 43 31 22 10 9 356 354 334 266 228 206 216 210 215 213 210 208 208 199 206 183 172 182 182 177 174 164 158 155 150 151 140 135 132 133 124 77
295 297 286 302 297 308 321 301 350 73 73 63 47 30 19 11 5 3 353 342 330 225 239 236 222 220 218 216 214 210 203 199 185 183 184 178 175 169 164 155 151 153 152 150 151 148 151 132 106
357 273 342 293 279 272 272 269 256 65 50 33 26 13 7 3 1 358 355 1 358 348 191 252 244 225 221 218 210 204 205 187 192 185 176 175 164 161 154 153 151 151 153 159 158 148 152 134 124
347 328 307 274 269 268 270 282 56 53 40 24 10 4 360 356 356 355 350 349 346 354 348 315 318 239 242 241 208 196 182 192 185 183 173 169 162 156 156 154 150 153 160 162 160 154 154 132 109
332 342 352 318 289 291 287 283 81 83 54 15 1 353 352 346 347 349 344 348 348 336 323 302 290 231 222 233 188 187 186 187 179 174 172 160 151 153 154 157 151 157 162 157 145 139 143 138 116
51 34 2 335 320 318 300 272 320 300 27 2 349 338 339 333 335 331 326 327 343 342 322 306 293 278 211 209 199 198 186 174 163 165 163 155 157 158 158 158 153 158 161 159 164 152 138 129 83